KC7NGC-B Weather Reports


time (UTC)temp
C
wind
direction
speed
KPH
gust
KPH
rain 1hr
cm
rain 24hr
cm
rain mn
cm
humidity
%
barometer
mb
20260902021621 26 183 3.2 6.4 0.00 0.00 0.00 1 1005.8
20260902020621 26 160 8.0 14.5 0.00 0.00 0.00 1 1005.8
20260902015633 26 98 3.2 8.0 0.00 0.00 0.00 1 1005.9
20260902014629 26 169 3.2 6.4 0.00 0.00 0.00 1 1005.8
20260902013625 26 148 1.6 3.2 0.00 0.00 0.00 1 1005.9
20260902012622 27 174 4.8 6.4 0.00 0.00 0.00 1 1005.9
20260902011617 27 165 4.8 6.4 0.00 0.00 0.00 1 1005.8
20260902010654 27 167 6.4 8.0 0.00 0.00 0.00 1 1006.0
20260902005629 27 154 4.8 9.7 0.00 0.00 0.00 1 1006.0
20260902004626 27 188 6.4 9.7 0.00 0.00 0.00 1 1006.0
20260902003622 27 180 4.8 6.4 0.00 0.00 0.00 1 1006.2
20260902002619 27 189 4.8 6.4 0.00 0.00 0.00 1 1006.2
20260902001635 27 180 6.4 8.0 0.00 0.00 0.00 1 1006.2
20260902000651 28 185 4.8 8.0 0.00 0.00 0.00 1 1006.3
20260901235628 28 33 1.6 3.2 0.00 0.00 0.00 1 1006.2
20260901234624 28 183 4.8 9.7 0.00 0.00 0.00 1 1006.4
20260901233620 28 159 3.2 4.8 0.00 0.00 0.00 1 1006.3
20260901232617 28 202 8.0 9.7 0.00 0.00 0.00 1 1006.4
20260901231632 28 222 4.8 8.0 0.00 0.00 0.00 1 1006.4
20260901230648 28 206 3.2 4.8 0.00 0.00 0.00 1 1006.6
20260901225624 27 231 3.2 6.4 0.00 0.00 0.00 1 1006.6
20260901224620 27 206 4.8 6.4 0.00 0.00 0.00 1 1006.5
20260901223617 27 205 6.4 9.7 0.00 0.00 0.00 1 1006.8
20260901222633 26 210 9.7 14.5 0.00 0.00 0.00 1 1006.8
20260901221629 26 209 8.0 14.5 0.00 0.00 0.00 1 1006.9
20260901220625 26 204 6.4 8.0 0.00 0.00 0.00 1 1007.0
20260901215621 26 185 8.0 14.5 0.00 0.00 0.00 1 1006.9
20260901214617 26 191 6.4 8.0 0.00 0.00 0.00 1 1007.2
20260901213633 26 178 9.7 14.5 0.00 0.00 0.00 1 1007.3
20260901212629 26 193 3.2 6.4 0.00 0.00 0.00 1 1007.4
20260901211625 25 135 0.0 1.6 0.00 0.00 0.00 1 1007.5
20260901210621 25 188 1.6 4.8 0.00 0.00 0.00 1 1007.7
20260901205618 23 193 3.2 6.4 0.00 0.00 0.00 1 1007.9
20260901204634 24 176 8.0 9.7 0.00 0.00 0.00 1 1007.9
20260901203631 23 189 3.2 4.8 0.00 0.00 0.00 1 1008.0
20260901202627 23 182 6.4 9.7 0.00 0.00 0.00 1 1008.2
20260901201623 23 198 9.7 16.1 0.00 0.00 0.00 1 1008.3
20260901200619 24 207 11.3 17.7 0.00 0.00 0.00 1 1008.4
20260901195636 23 204 9.7 14.5 0.00 0.00 0.00 1 1008.7
20260901194632 21 228 6.4 9.7 0.00 0.00 0.00 1 1008.7
20260901193629 22 184 9.7 11.3 0.00 0.00 0.00 1 1008.9
20260901192624 22 184 4.8 9.7 0.00 0.00 0.00 1 1009.0
20260901191621 22 175 4.8 8.0 0.00 0.00 0.00 1 1009.1
20260901190636 22 182 3.2 6.4 0.00 0.00 0.00 1 1008.8
20260901185653 21 172 6.4 9.7 0.00 0.00 0.00 1 1008.8
20260901184630 21 182 4.8 6.4 0.00 0.00 0.00 1 1008.7
20260901183645 21 186 4.8 8.0 0.00 0.00 0.00 1 1008.9
20260901182621 21 206 9.7 16.1 0.00 0.00 0.00 1 1009.0
20260901181617 21 172 11.3 16.1 0.00 0.00 0.00 1 1009.2
20260901180634 21 172 6.4 9.7 0.00 0.00 0.00 1 1008.9
20260901175630 21 205 4.8 8.0 0.00 0.00 0.00 1 1009.0
20260901174626 21 185 8.0 9.7 0.00 0.00 0.00 1 1009.2
20260901173622 21 182 3.2 4.8 0.00 0.00 0.00 1 1009.2
20260901172618 21 112 1.6 3.2 0.00 0.00 0.00 1 1009.3
20260901171634 21 161 3.2 4.8 0.00 0.00 0.00 1 1009.3
20260901170630 21 176 1.6 3.2 0.00 0.00 0.00 1 1009.1
20260901165647 21 0.0 0.0 0.00 0.00 0.00 1 1008.8
20260901164703 20 0.0 0.0 0.00 0.00 0.00 1 1008.9
20260901163619 20 0.0 0.0 0.00 0.00 0.00 1 1009.0
20260901162635 20 48 3.2 3.2 0.00 0.00 0.00 1 1008.9
20260901161651 20 0.0 0.0 0.00 0.00 0.00 1 1009.0
20260901160627 20 121 0.0 1.6 0.00 0.00 0.00 1 1009.1
20260901155624 20 0.0 3.2 0.00 0.00 0.00 1 1009.0
20260901154619 20 54 1.6 3.2 0.00 0.00 0.00 1 1008.8
20260901153619 20 69 1.6 3.2 0.00 0.00 0.00 1 1008.8
20260901152633 19 52 1.6 3.2 0.00 0.00 0.00 1 1008.6
20260901151629 19 44 1.6 3.2 0.00 0.00 0.00 1 1008.7
20260901150625 18 0.0 0.0 0.00 0.00 0.00 1 1008.7
20260901145641 18 0.0 0.0 0.00 0.00 0.00 1 1008.6
20260901144618 17 320 3.2 3.2 0.00 0.00 0.00 1 1008.6
20260901143815 17 342 8.0 8.0 0.00 0.00 0.00 1 1008.5
20260901142631 17 262 0.0 3.2 0.00 0.00 0.00 1 1008.5
20260901141627 17 278 1.6 3.2 0.00 0.00 0.00 1 1008.5
20260901140623 17 190 4.8 6.4 0.00 0.00 0.00 1 1008.3
20260901135639 16 155 1.6 4.8 0.00 0.00 0.00 1 1008.2
20260901134636 16 207 4.8 6.4 0.00 0.00 0.00 1 1008.3
20260901133632 16 0.0 4.8 0.00 0.00 0.00 1 1008.0
20260901132628 16 214 1.6 4.8 0.00 0.00 0.00 1 1008.2
20260901131625 17 202 3.2 4.8 0.00 0.00 0.00 1 1008.3
20260901130620 17 200 3.2 6.4 0.00 0.00 0.00 1 1008.3
20260901125620 17 10 3.2 4.8 0.00 0.00 0.00 1 1008.1
20260901124633 17 0.0 1.6 0.00 0.00 0.00 1 1007.9
20260901123629 17 132 0.0 1.6 0.00 0.00 0.00 1 1007.7
20260901122624 17 270 1.6 3.2 0.00 0.00 0.00 1 1008.1
20260901121641 17 0.0 0.0 0.00 0.00 0.00 1 1007.9
20260901120618 17 329 4.8 6.4 0.00 0.00 0.00 1 1007.9
20260901115634 17 0.0 1.6 0.00 0.00 0.00 1 1008.0
20260901114652 17 285 4.8 6.4 0.00 0.00 0.00 1 1007.9
20260901113627 17 246 1.6 1.6 0.00 0.00 0.00 1 1008.2
20260901112623 17 0.0 1.6 0.00 0.00 0.00 1 1008.0
20260901111621 17 17 0.0 3.2 0.00 0.00 0.00 1 1007.7
20260901110656 17 26 3.2 3.2 0.00 0.00 0.00 1 1007.9
20260901105626 17 326 1.6 1.6 0.00 0.00 0.00 1 1007.8
20260901104622 18 0.0 1.6 0.00 0.00 0.00 1 1008.0
20260901103639 17 324 0.0 1.6 0.00 0.00 0.00 1 1008.1
20260901102635 17 330 1.6 3.2 0.00 0.00 0.00 1 1008.1
20260901101632 18 317 4.8 4.8 0.00 0.00 0.00 1 1008.2
20260901100629 18 298 4.8 6.4 0.00 0.00 0.00 1 1008.2
20260901095645 18 275 1.6 3.2 0.00 0.00 0.00 1 1008.3
20260901094621 18 301 6.4 6.4 0.00 0.00 0.00 1 1008.3
20260901093617 18 273 3.2 3.2 0.00 0.00 0.00 1
20260901092634 18 309 3.2 4.8 0.00 0.00 0.00 1 1008.2
20260901091631 18 306 3.2 4.8 0.00 0.00 0.00 1 1008.1
20260901090627 17 215 1.6 3.2 0.00 0.00 0.00 1 1008.2
20260901085623 17 303 4.8 6.4 0.00 0.00 0.00 1 1008.0
20260901084620 17 306 4.8 4.8 0.00 0.00 0.00 1 1008.3
20260901083618 17 337 3.2 3.2 0.00 0.00 0.00 1 1008.2
20260901082653 17 298 4.8 4.8 0.00 0.00 0.00 1 1008.3
20260901081629 17 299 4.8 4.8 0.00 0.00 0.00 1 1008.4
20260901080705 17 274 3.2 6.4 0.00 0.00 0.00 1 1008.5
20260901075702 17 316 4.8 4.8 0.00 0.00 0.00 1 1008.5
20260901074639 17 292 3.2 3.2 0.00 0.00 0.00 1 1008.5
20260901073635 18 284 1.6 3.2 0.00 0.00 0.00 1 1008.5
20260901072631 18 304 4.8 6.4 0.00 0.00 0.00 1 1008.4
20260901071627 18 302 4.8 6.4 0.00 0.00 0.00 1 1008.5
20260901070623 18 287 3.2 4.8 0.00 0.00 0.00 1 1008.5
20260901065620 18 309 3.2 6.4 0.00 0.00 0.00 1 1008.5
20260901064617 18 317 4.8 6.4 0.00 0.00 0.00 1 1008.4
20260901063634 19 322 4.8 6.4 0.00 0.00 0.00 1 1008.7
20260901062630 20 342 4.8 6.4 0.00 0.00 0.00 1 1008.7
20260901061627 20 316 4.8 6.4 0.00 0.00 0.00 1 1008.7
20260901060625 21 318 4.8 6.4 0.00 0.00 0.00 1 1008.7
20260901055620 21 339 6.4 8.0 0.00 0.00 0.00 1 1008.7
20260901054637 22 346 4.8 6.4 0.00 0.00 0.00 1 1008.8
20260901053714 22 355 4.8 6.4 0.00 0.00 0.00 1 1008.9
20260901052630 22 350 6.4 6.4 0.00 0.00 0.00 1 1009.0
20260901051627 22 356 3.2 4.8 0.00 0.00 0.00 1 1009.0
20260901050624 22 345 3.2 3.2 0.00 0.00 0.00 1 1009.1
20260901045620 22 337 3.2 4.8 0.00 0.00 0.00 1 1009.1
20260901044616 22 332 3.2 4.8 0.00 0.00 0.00 1 1009.2
20260901043633 22 339 6.4 8.0 0.00 0.00 0.00 1 1009.1
20260901042630 22 321 4.8 6.4 0.00 0.00 0.00 1 1009.1
20260901041708 23 324 4.8 6.4 0.00 0.00 0.00 1 1009.0
20260901040624 23 328 4.8 8.0 0.00 0.00 0.00 1 1009.0
20260901035620 22 332 8.0 11.3 0.00 0.00 0.00 1 1009.0
20260901034617 22 320 9.7 11.3 0.00 0.00 0.00 1 1009.1
20260901033633 23 326 8.0 11.3 0.00 0.00 0.00 1 1009.1
20260901032630 23 320 6.4 8.0 0.00 0.00 0.00 1 1008.8
20260901031627 23 334 9.7 11.3 0.00 0.00 0.00 1 1008.9
20260901030624 23 336 8.0 9.7 0.00 0.00 0.00 1 1009.0
20260901025620 24 335 8.0 9.7 0.00 0.00 0.00 1 1008.9
20260901024636 24 337 8.0 9.7 0.00 0.00 0.00 1 1008.9
20260901023633 24 327 4.8 6.4 0.00 0.00 0.00 1 1008.9
20260901022630 25 318 4.8 4.8 0.00 0.00 0.00 1 1009.1